TimeCDT,TemperatureF,Dew PointF,Humidity,Sea Level PressureIn,VisibilityMPH,Wind Direction,Wind SpeedMPH,Gust SpeedMPH,PrecipitationIn,Events,Conditions,WindDirDegrees,DateUTC
12:15 AM,38.8,34.9,86,29.89,10.0,NNW,8.1,-,N/A,,Scattered Clouds,340,2011-10-20 05:15:00
12:35 AM,38.5,34.9,87,29.89,10.0,NNW,5.8,-,N/A,,Scattered Clouds,340,2011-10-20 05:35:00
12:55 AM,38.3,34.7,87,29.88,10.0,NNW,5.8,-,N/A,,Clear,340,2011-10-20 05:55:00
1:15 AM,38.5,34.3,85,29.88,10.0,NNW,10.4,-,N/A,,Scattered Clouds,330,2011-10-20 06:15:00
1:35 AM,38.7,34.2,84,29.87,10.0,NNW,11.5,16.1,N/A,,Mostly Cloudy,340,2011-10-20 06:35:00
1:55 AM,38.8,33.4,81,29.86,10.0,NNW,13.8,-,N/A,,Mostly Cloudy,330,2011-10-20 06:55:00
2:15 AM,38.8,32.9,79,29.85,10.0,NNW,10.4,16.1,N/A,,Mostly Cloudy,330,2011-10-20 07:15:00
2:35 AM,39.2,33.1,79,29.85,10.0,NNW,10.4,17.3,N/A,,Overcast,330,2011-10-20 07:35:00
3:15 AM,39.6,33.3,78,29.83,10.0,NW,10.4,-,N/A,,Overcast,320,2011-10-20 08:15:00
3:35 AM,39.7,33.4,78,29.82,10.0,NW,10.4,19.6,N/A,,Overcast,320,2011-10-20 08:35:00
3:55 AM,39.9,33.8,79,29.81,10.0,NW,12.7,20.7,N/A,,Overcast,320,2011-10-20 08:55:00
4:15 AM,40.1,33.8,78,29.81,10.0,NNW,11.5,20.7,N/A,,Overcast,330,2011-10-20 09:15:00
4:35 AM,40.1,33.8,78,29.82,10.0,NNW,10.4,19.6,N/A,,Overcast,330,2011-10-20 09:35:00
4:55 AM,40.3,33.6,77,29.82,10.0,NNW,13.8,18.4,N/A,,Overcast,340,2011-10-20 09:55:00
5:15 AM,40.5,33.1,75,29.82,10.0,NNW,12.7,-,N/A,,Overcast,340,2011-10-20 10:15:00
5:35 AM,40.6,33.3,75,29.82,10.0,NNW,9.2,20.7,N/A,,Overcast,340,2011-10-20 10:35:00
6:15 AM,40.8,34.0,77,29.81,10.0,NNW,11.5,23.0,N/A,,Overcast,340,2011-10-20 11:15:00
6:35 AM,41.0,33.8,76,29.81,10.0,NNW,10.4,17.3,N/A,,Overcast,340,2011-10-20 11:35:00
6:55 AM,40.8,33.8,76,29.80,10.0,NNW,9.2,-,N/A,,Overcast,340,2011-10-20 11:55:00
7:15 AM,40.8,33.3,74,29.81,10.0,NNW,15.0,20.7,N/A,,Overcast,330,2011-10-20 12:15:00
7:35 AM,41.2,32.7,72,29.81,10.0,North,13.8,21.9,N/A,,Overcast,350,2011-10-20 12:35:00
7:55 AM,41.2,32.2,70,29.81,10.0,NNW,12.7,21.9,N/A,,Overcast,340,2011-10-20 12:55:00
8:15 AM,41.4,32.0,69,29.81,10.0,NNW,12.7,18.4,N/A,,Overcast,340,2011-10-20 13:15:00
8:35 AM,41.7,32.2,69,29.81,10.0,NNW,12.7,19.6,N/A,,Overcast,330,2011-10-20 13:35:00
8:55 AM,41.9,32.9,70,29.81,10.0,NNW,17.3,23.0,N/A,,Overcast,330,2011-10-20 13:55:00
9:15 AM,42.1,32.7,69,29.81,10.0,NNW,15.0,20.7,N/A,,Overcast,330,2011-10-20 14:15:00
9:35 AM,42.4,32.7,68,29.81,10.0,NNW,12.7,24.2,N/A,,Overcast,330,2011-10-20 14:35:00
9:55 AM,42.8,32.4,67,29.81,10.0,NNW,15.0,21.9,N/A,,Overcast,340,2011-10-20 14:55:00
10:15 AM,43.2,32.2,65,29.81,10.0,North,16.1,23.0,N/A,,Overcast,360,2011-10-20 15:15:00
10:35 AM,43.9,32.4,64,29.81,10.0,NNW,13.8,23.0,N/A,,Overcast,330,2011-10-20 15:35:00
10:55 AM,43.7,32.4,64,29.82,10.0,NNW,17.3,23.0,N/A,,Overcast,340,2011-10-20 15:55:00
11:15 AM,45.0,32.0,60,29.81,10.0,NNW,18.4,26.5,N/A,,Mostly Cloudy,330,2011-10-20 16:15:00
11:35 AM,45.7,32.0,59,29.81,10.0,NNW,18.4,27.6,N/A,,Mostly Cloudy,340,2011-10-20 16:35:00
11:55 AM,47.8,31.6,53,29.80,10.0,NNW,13.8,19.6,N/A,,Mostly Cloudy,330,2011-10-20 16:55:00
12:15 PM,47.1,32.0,56,29.81,10.0,NNW,15.0,25.3,N/A,,Mostly Cloudy,330,2011-10-20 17:15:00
12:35 PM,47.3,31.8,55,29.80,10.0,NNW,12.7,24.2,N/A,,Mostly Cloudy,330,2011-10-20 17:35:00
12:55 PM,48.2,31.3,52,29.79,10.0,North,11.5,26.5,N/A,,Scattered Clouds,350,2011-10-20 17:55:00
1:55 PM,51.4,30.4,44,29.78,10.0,North,11.5,25.3,N/A,,Clear,350,2011-10-20 18:55:00
2:15 PM,51.8,31.3,46,29.79,10.0,North,15.0,23.0,N/A,,Scattered Clouds,350,2011-10-20 19:15:00
2:35 PM,52.0,30.4,44,29.79,10.0,NNW,17.3,25.3,N/A,,Scattered Clouds,330,2011-10-20 19:35:00
2:55 PM,52.3,30.2,43,29.78,10.0,North,17.3,20.7,N/A,,Clear,350,2011-10-20 19:55:00
3:15 PM,52.3,30.4,43,29.79,10.0,NNW,11.5,27.6,N/A,,Clear,330,2011-10-20 20:15:00
3:35 PM,52.7,29.1,40,29.79,10.0,NNW,15.0,26.5,N/A,,Clear,340,2011-10-20 20:35:00
3:55 PM,53.1,28.8,39,29.79,10.0,NNW,11.5,18.4,N/A,,Clear,340,2011-10-20 20:55:00
4:15 PM,53.4,29.5,40,29.80,10.0,NNW,17.3,24.2,N/A,,Clear,340,2011-10-20 21:15:00
4:35 PM,53.1,29.3,40,29.80,10.0,NNW,15.0,27.6,N/A,,Clear,330,2011-10-20 21:35:00
4:55 PM,52.5,28.6,40,29.81,10.0,NNW,17.3,24.2,N/A,,Clear,340,2011-10-20 21:55:00
5:35 PM,50.7,30.9,47,29.83,10.0,NW,12.7,21.9,N/A,,Clear,310,2011-10-20 22:35:00
5:55 PM,49.8,31.1,49,29.85,10.0,NW,8.1,-,N/A,,Clear,310,2011-10-20 22:55:00
6:15 PM,48.7,31.1,51,29.85,10.0,NW,13.8,17.3,N/A,,Clear,320,2011-10-20 23:15:00
6:35 PM,48.2,30.0,49,29.87,10.0,NW,11.5,-,N/A,,Clear,320,2011-10-20 23:35:00
7:15 PM,46.8,29.3,51,29.89,10.0,NW,8.1,-,N/A,,Clear,320,2011-10-21 00:15:00
7:35 PM,46.0,29.7,53,29.90,10.0,NW,8.1,-,N/A,,Clear,310,2011-10-21 00:35:00
8:15 PM,44.2,29.8,57,29.90,10.0,NW,4.6,-,N/A,,Clear,310,2011-10-21 01:15:00
8:35 PM,42.6,29.8,61,29.90,10.0,NNW,4.6,-,N/A,,Clear,330,2011-10-21 01:35:00
9:15 PM,40.6,29.8,65,29.91,10.0,North,4.6,-,N/A,,Clear,10,2011-10-21 02:15:00
9:35 PM,38.1,29.7,72,29.92,10.0,North,5.8,-,N/A,,Clear,10,2011-10-21 02:35:00
9:55 PM,39.0,30.7,72,29.93,10.0,North,3.5,-,N/A,,Clear,350,2011-10-21 02:55:00
10:15 PM,39.2,30.6,71,29.94,10.0,North,3.5,-,N/A,,Clear,10,2011-10-21 03:15:00
10:35 PM,37.2,30.2,76,29.94,10.0,Calm,Calm,-,N/A,,Clear,0,2011-10-21 03:35:00
10:55 PM,32.9,29.3,87,29.94,10.0,Calm,Calm,-,N/A,,Clear,0,2011-10-21 03:55:00
11:15 PM,31.6,28.6,88,29.95,10.0,Calm,Calm,-,N/A,,Clear,0,2011-10-21 04:15:00
11:35 PM,31.5,28.8,90,29.95,10.0,Calm,Calm,-,N/A,,Clear,0,2011-10-21 04:35:00
11:55 PM,30.2,27.9,91,29.95,10.0,Calm,Calm,-,N/A,,Clear,0,2011-10-21 04:55:00